| time (UTC) | temp F | wind direction | speed knots | gust knots | rain 1hr in | rain 24hr in | rain mn in | humidity % | barometer mb |
| 20260505010745 | 66 | 124 | 0.9 | 2.6 | 0.00 | 0.00 | 0.00 | 29 | 1005.1 |
| 20260505010252 | 66 | 143 | 1.7 | 3.5 | 0.00 | 0.00 | 0.00 | 33 | 1005.2 |
| 20260505005755 | 66 | 153 | 1.7 | 4.3 | 0.00 | 0.00 | 0.00 | 32 | 1005.1 |
| 20260505005243 | 65 | 149 | 1.7 | 4.3 | 0.00 | 0.00 | 0.00 | 31 | 1005.0 |
| 20260505004808 | 65 | 128 | 2.6 | 4.3 | 0.00 | 0.00 | 0.00 | 33 | 1005.1 |
| 20260505004254 | 65 | 162 | 1.7 | 5.2 | 0.00 | 0.00 | 0.00 | 33 | 1005.1 |
| 20260505003757 | 65 | 132 | 2.6 | 4.3 | 0.00 | 0.00 | 0.00 | 34 | 1005.1 |
| 20260505003242 | 65 | 141 | 1.7 | 4.3 | 0.00 | 0.00 | 0.00 | 39 | 1005.2 |
| 20260505002745 | 65 | 135 | 1.7 | 6.1 | 0.00 | 0.00 | 0.00 | 37 | 1005.2 |
| 20260505002251 | 65 | 151 | 2.6 | 6.1 | 0.00 | 0.00 | 0.00 | 39 | 1005.2 |
| 20260505001756 | 64 | 195 | 0.9 | 5.2 | 0.00 | 0.00 | 0.00 | 37 | 1005.3 |
| 20260505001243 | 64 | 94 | 2.6 | 6.1 | 0.00 | 0.00 | 0.00 | 35 | 1005.4 |
| 20260505000748 | 64 | 64 | 2.6 | 4.3 | 0.00 | 0.00 | 0.00 | 35 | 1005.4 |
| 20260505000256 | 63 | 105 | 1.7 | 6.1 | 0.00 | 0.00 | 0.00 | 37 | 1005.3 |
| 20260504235758 | 63 | 164 | 1.7 | 5.2 | 0.00 | 0.00 | 0.00 | 39 | 1005.5 |
| 20260504235305 | 62 | 129 | 1.7 | 7.0 | 0.00 | 0.00 | 0.00 | 44 | 1005.6 |
| 20260504234745 | 61 | 114 | 1.7 | 7.0 | 0.00 | 0.00 | 0.00 | 42 | 1005.6 |
| 20260504234251 | 61 | 139 | 1.7 | 5.2 | 0.00 | 0.00 | 0.00 | 41 | 1005.7 |
| 20260504233753 | 61 | 112 | 1.7 | 4.3 | 0.00 | 0.00 | 0.00 | 42 | 1005.6 |
| 20260504233301 | 61 | 77 | 1.7 | 4.3 | 0.00 | 0.00 | 0.00 | 39 | 1005.6 |
| 20260504232745 | 61 | 112 | 2.6 | 8.7 | 0.00 | 0.00 | 0.00 | 39 | 1005.6 |
| 20260504232249 | 62 | 146 | 4.3 | 8.7 | 0.00 | 0.00 | 0.00 | 40 | 1005.6 |
| 20260504231753 | 63 | 120 | 5.2 | 15.6 | 0.00 | 0.00 | 0.00 | 39 | 1005.9 |
| 20260504231259 | 65 | 330 | 7.0 | 16.5 | 0.00 | 0.00 | 0.00 | 35 | 1005.9 |
| 20260504230742 | 69 | 331 | 6.1 | 15.6 | 0.00 | 0.00 | 0.00 | 32 | 1005.7 |
| 20260504230249 | 72 | 22 | 6.1 | 8.7 | 0.00 | 0.00 | 0.00 | 16 | 1005.5 |
| 20260504225813 | 74 | 22 | 2.6 | 5.2 | 0.00 | 0.00 | 0.00 | 17 | 1005.2 |
| 20260504225258 | 74 | 340 | 1.7 | 4.3 | 0.00 | 0.00 | 0.00 | 11 | 1005.0 |
| 20260504224742 | 75 | 6 | 1.7 | 4.3 | 0.00 | 0.00 | 0.00 | 13 | 1005.0 |
| 20260504224248 | 76 | 320 | 1.7 | 5.2 | 0.00 | 0.00 | 0.00 | 15 | 1004.9 |
| 20260504223749 | 77 | 28 | 1.7 | 7.0 | 0.00 | 0.00 | 0.00 | 12 | 1004.9 |
| 20260504223256 | 76 | 240 | 3.5 | 7.0 | 0.00 | 0.00 | 0.00 | 10 | 1005.0 |
| 20260504222757 | 77 | 54 | 2.6 | 7.8 | 0.00 | 0.00 | 0.00 | 12 | 1005.1 |
| 20260504222305 | 76 | 74 | 4.3 | 7.8 | 0.00 | 0.00 | 0.00 | 11 | 1005.1 |
| 20260504221807 | 76 | 19 | 3.5 | 9.6 | 0.00 | 0.00 | 0.00 | 15 | 1005.1 |
| 20260504221253 | 76 | 30 | 4.3 | 9.6 | 0.00 | 0.00 | 0.00 | 15 | 1005.2 |
| 20260504220757 | 76 | 83 | 3.5 | 6.1 | 0.00 | 0.00 | 0.00 | 13 | 1005.1 |
| 20260504220244 | 76 | 22 | 1.7 | 4.3 | 0.00 | 0.00 | 0.00 | 12 | 1005.2 |
| 20260504215746 | 75 | 8 | 2.6 | 6.1 | 0.00 | 0.00 | 0.00 | 11 | 1005.3 |
| 20260504215253 | 75 | 349 | 4.3 | 6.1 | 0.00 | 0.00 | 0.00 | 9 | 1005.3 |
| 20260504214817 | 76 | 347 | 3.5 | 5.2 | 0.00 | 0.00 | 0.00 | 10 | 1005.6 |
| 20260504214303 | 76 | 254 | 1.7 | 9.6 | 0.00 | 0.00 | 0.00 | 12 | 1005.7 |
| 20260504213746 | 77 | 295 | 3.5 | 9.6 | 0.00 | 0.00 | 0.00 | 8 | 1005.8 |
| 20260504213252 | 78 | 197 | 3.5 | 8.7 | 0.00 | 0.00 | 0.00 | 9 | 1005.9 |
| 20260504212757 | 78 | 248 | 1.7 | 3.5 | 0.00 | 0.00 | 0.00 | 12 | 1005.9 |
| 20260504212243 | 77 | 360 | 1.7 | 4.3 | 0.00 | 0.00 | 0.00 | 10 | 1006.0 |
| 20260504211747 | 77 | 53 | 1.7 | 6.1 | 0.00 | 0.00 | 0.00 | 15 | 1006.1 |
| 20260504211253 | 77 | 45 | 3.5 | 6.1 | 0.00 | 0.00 | 0.00 | 11 | 1006.2 |
| 20260504210756 | 77 | 99 | 2.6 | 5.2 | 0.00 | 0.00 | 0.00 | 12 | 1006.2 |
| 20260504210302 | 77 | 124 | 1.7 | 6.1 | 0.00 | 0.00 | 0.00 | 10 | 1006.3 |
| 20260504205805 | 77 | 268 | 2.6 | 8.7 | 0.00 | 0.00 | 0.00 | 8 | 1006.3 |
| 20260504205250 | 77 | 185 | 1.7 | 10.4 | 0.00 | 0.00 | 0.00 | 11 | 1006.6 |
| 20260504204754 | 77 | 303 | 4.3 | 10.4 | 0.00 | 0.00 | 0.00 | 9 | 1006.5 |
| 20260504204259 | 77 | 241 | 4.3 | 9.6 | 0.00 | 0.00 | 0.00 | 10 | 1006.5 |
| 20260504203802 | 77 | 347 | 1.7 | 7.0 | 0.00 | 0.00 | 0.00 | 10 | 1006.5 |
| 20260504203247 | 77 | 308 | 1.7 | 7.8 | 0.00 | 0.00 | 0.00 | 11 | 1006.7 |
| 20260504202750 | 77 | 222 | 2.6 | 8.7 | 0.00 | 0.00 | 0.00 | 10 | 1006.7 |
| 20260504202319 | 77 | 297 | 1.7 | 9.6 | 0.00 | 0.00 | 0.00 | 11 | 1006.6 |
| 20260504201743 | 76 | 274 | 3.5 | 7.8 | 0.00 | 0.00 | 0.00 | 12 | 1006.8 |
| 20260504201312 | 77 | 185 | 4.3 | 7.8 | 0.00 | 0.00 | 0.00 | 12 | 1006.8 |
| 20260504200754 | 77 | 218 | 1.7 | 7.8 | 0.00 | 0.00 | 0.00 | 13 | 1006.9 |
| 20260504200320 | 77 | 279 | 1.7 | 3.5 | 0.00 | 0.00 | 0.00 | 14 | 1006.8 |
| 20260504195803 | 76 | 18 | 0.9 | 5.2 | 0.00 | 0.00 | 0.00 | 14 | 1007.0 |
| 20260504195248 | 76 | 243 | 1.7 | 4.3 | 0.00 | 0.00 | 0.00 | 13 | 1007.1 |
| 20260504194812 | 76 | 218 | 1.7 | 6.1 | 0.00 | 0.00 | 0.00 | 12 | 1007.1 |
| 20260504194258 | 76 | 185 | 2.6 | 6.1 | 0.00 | 0.00 | 0.00 | 12 | 1007.1 |
| 20260504193743 | 75 | 292 | 1.7 | 6.1 | 0.00 | 0.00 | 0.00 | 12 | 1007.2 |
| 20260504193249 | 75 | 104 | 3.5 | 6.1 | 0.00 | 0.00 | 0.00 | 13 | 1007.3 |
| 20260504192753 | 75 | 205 | 1.7 | 4.3 | 0.00 | 0.00 | 0.00 | 13 | 1007.4 |
| 20260504192300 | 74 | 66 | 1.7 | 4.3 | 0.00 | 0.00 | 0.00 | 13 | 1007.4 |
| 20260504191743 | 74 | 116 | 1.7 | 4.3 | 0.00 | 0.00 | 0.00 | 16 | 1007.6 |
| 20260504191251 | 74 | 325 | 1.7 | 7.0 | 0.00 | 0.00 | 0.00 | 14 | 1007.6 |
| 20260504190755 | 74 | 163 | 3.5 | 7.0 | 0.00 | 0.00 | 0.00 | 12 | 1007.6 |
| 20260504190300 | 73 | 32 | 1.7 | 7.0 | 0.00 | 0.00 | 0.00 | 16 | 1007.7 |
| 20260504185742 | 73 | 164 | 3.5 | 7.0 | 0.00 | 0.00 | 0.00 | 15 | 1007.7 |
| 20260504185248 | 73 | 133 | 2.6 | 7.0 | 0.00 | 0.00 | 0.00 | 13 | 1007.8 |
| 20260504184751 | 73 | 185 | 3.5 | 7.0 | 0.00 | 0.00 | 0.00 | 13 | 1007.9 |
| 20260504184257 | 73 | 175 | 3.5 | 7.0 | 0.00 | 0.00 | 0.00 | 15 | 1007.9 |
| 20260504183741 | 73 | 87 | 1.7 | 5.2 | 0.00 | 0.00 | 0.00 | 17 | 1007.9 |
| 20260504183248 | 72 | 25 | 3.5 | 4.3 | 0.00 | 0.00 | 0.00 | 17 | 1008.1 |
| 20260504182751 | 72 | 106 | 1.7 | 7.0 | 0.00 | 0.00 | 0.00 | 16 | 1008.2 |
| 20260504182257 | 72 | 114 | 2.6 | 7.0 | 0.00 | 0.00 | 0.00 | 18 | 1008.1 |
| 20260504181741 | 71 | 143 | 1.7 | 7.0 | 0.00 | 0.00 | 0.00 | 17 | 1008.1 |
| 20260504181306 | 71 | 279 | 3.5 | 7.0 | 0.00 | 0.00 | 0.00 | 17 | 1008.2 |
| 20260504180810 | 71 | 124 | 2.6 | 5.2 | 0.00 | 0.00 | 0.00 | 17 | 1008.3 |
| 20260504180253 | 71 | 148 | 1.7 | 4.3 | 0.00 | 0.00 | 0.00 | 17 | 1008.3 |
| 20260504175755 | 70 | 185 | 0.9 | 4.3 | 0.00 | 0.00 | 0.00 | 17 | 1008.4 |
| 20260504175304 | 70 | 77 | 1.7 | 6.1 | 0.00 | 0.00 | 0.00 | 20 | 1008.5 |
| 20260504174746 | 69 | 6 | 2.6 | 6.1 | 0.00 | 0.00 | 0.00 | 16 | 1008.5 |
| 20260504174252 | 69 | 185 | 2.6 | 5.2 | 0.00 | 0.00 | 0.00 | 18 | 1008.6 |
| 20260504173254 | 69 | 237 | 1.7 | 4.3 | 0.00 | 0.00 | 0.00 | 17 | 1008.6 |
| 20260504172758 | 68 | 80 | 1.7 | 4.3 | 0.00 | 0.00 | 0.00 | 19 | 1008.7 |
| 20260504172245 | 68 | 345 | 3.5 | 6.1 | 0.00 | 0.00 | 0.00 | 17 | 1008.7 |
| 20260504171749 | 68 | 22 | 1.7 | 5.2 | 0.00 | 0.00 | 0.00 | 21 | 1008.6 |
| 20260504171258 | 67 | 299 | 0.9 | 3.5 | 0.00 | 0.00 | 0.00 | 20 | 1008.6 |
| 20260504170741 | 67 | 250 | 1.7 | 4.3 | 0.00 | 0.00 | 0.00 | 20 | 1008.6 |
| 20260504170247 | 66 | 276 | 0.9 | 4.3 | 0.00 | 0.00 | 0.00 | 20 | 1008.6 |
| 20260504160249 | 59 | 9 | 1.7 | 4.3 | 0.00 | 0.00 | 0.00 | 34 | 1008.8 |
| 20260504150758 | 53 | 107 | 0.9 | 2.6 | 0.00 | 0.00 | 0.00 | 41 | 1009.1 |
| 20260504150244 | 52 | 26 | 1.7 | 2.6 | 0.00 | 0.00 | 0.00 | 40 | 1009.1 |
| 20260504141251 | 43 | 93 | 0.9 | 1.7 | 0.00 | 0.00 | 0.00 | 60 | 1009.4 |
| 20260504140756 | 42 | 216 | 0.0 | 1.7 | 0.00 | 0.00 | 0.00 | 63 | 1009.4 |
| 20260504140302 | 41 | 263 | 0.0 | 0.9 | 0.00 | 0.00 | 0.00 | 64 | 1009.2 |
| 20260504130756 | 33 | 347 | 0.0 | 0.0 | 0.00 | 0.00 | 0.00 | 65 | 1008.9 |
| 20260504130302 | 33 | 347 | 0.0 | 0.9 | 0.00 | 0.00 | 0.00 | 64 | 1008.8 |
| 20260504120310 | 33 | 347 | 0.0 | 0.9 | 0.00 | 0.00 | 0.00 | 60 | 1008.8 |
| 20260504110301 | 35 | 347 | 0.9 | 1.7 | 0.00 | 0.00 | 0.00 | 57 | 1008.8 |
| 20260504100254 | 38 | 347 | 0.0 | 1.7 | 0.00 | 0.00 | 0.00 | 54 | 1008.7 |
| 20260504081744 | 44 | 347 | 0.9 | 2.6 | 0.00 | 0.00 | 0.00 | 43 | 1008.9 |
| 20260504081252 | 45 | 347 | 0.9 | 1.7 | 0.00 | 0.00 | 0.00 | 42 | 1008.9 |
| 20260504080816 | 45 | 347 | 0.0 | 0.9 | 0.00 | 0.00 | 0.00 | 42 | 1009.1 |
| 20260504080323 | 46 | 347 | 0.0 | 1.7 | 0.00 | 0.00 | 0.00 | 40 | 1009.1 |
| 20260504070253 | 51 | 162 | 2.6 | 5.2 | 0.00 | 0.00 | 0.00 | 31 | 1008.7 |
| 20260504050243 | 49 | 229 | 0.9 | 0.9 | 0.00 | 0.00 | 0.00 | 39 | 1009.4 |
| 20260504045747 | 50 | 229 | 0.0 | 1.7 | 0.00 | 0.00 | 0.00 | 38 | 1009.4 |
| 20260504045254 | 50 | 229 | 0.9 | 1.7 | 0.00 | 0.00 | 0.00 | 38 | 1009.2 |
| 20260504044758 | 50 | 229 | 0.9 | 1.7 | 0.00 | 0.00 | 0.00 | 37 | 1009.2 |
| 20260504044245 | 51 | 229 | 0.9 | 1.7 | 0.00 | 0.00 | 0.00 | 36 | 1009.2 |
| 20260504043749 | 51 | 229 | 0.0 | 1.7 | 0.00 | 0.00 | 0.00 | 36 | 1009.4 |
| 20260504043259 | 51 | 229 | 0.0 | 1.7 | 0.00 | 0.00 | 0.00 | 35 | 1009.4 |
| 20260504042743 | 52 | 229 | 0.9 | 1.7 | 0.00 | 0.00 | 0.00 | 34 | 1009.4 |
| 20260504042251 | 52 | 229 | 0.9 | 1.7 | 0.00 | 0.00 | 0.00 | 34 | 1009.4 |
| 20260504041757 | 52 | 229 | 0.0 | 0.9 | 0.00 | 0.00 | 0.00 | 35 | 1009.2 |
| 20260504041243 | 53 | 229 | 0.0 | 1.7 | 0.00 | 0.00 | 0.00 | 33 | 1009.2 |
| 20260504040747 | 53 | 229 | 0.9 | 1.7 | 0.00 | 0.00 | 0.00 | 32 | 1009.2 |
| 20260504040255 | 53 | 229 | 0.9 | 1.7 | 0.00 | 0.00 | 0.00 | 33 | 1009.2 |
| 20260504035819 | 53 | 229 | 0.9 | 1.7 | 0.00 | 0.00 | 0.00 | 33 | 1009.2 |
| 20260504035305 | 54 | 229 | 0.9 | 1.7 | 0.00 | 0.00 | 0.00 | 33 | 1009.2 |
| 20260504034749 | 54 | 229 | 0.9 | 1.7 | 0.00 | 0.00 | 0.00 | 32 | 1009.1 |
| 20260504034256 | 54 | 229 | 0.9 | 1.7 | 0.00 | 0.00 | 0.00 | 33 | 1009.2 |
| 20260504033740 | 54 | 229 | 0.9 | 1.7 | 0.00 | 0.00 | 0.00 | 32 | 1009.1 |
| 20260504033247 | 55 | 229 | 0.9 | 1.7 | 0.00 | 0.00 | 0.00 | 33 | 1009.2 |
| 20260504032752 | 55 | 229 | 0.0 | 1.7 | 0.00 | 0.00 | 0.00 | 32 | 1009.1 |
| 20260504032258 | 56 | 229 | 0.9 | 1.7 | 0.00 | 0.00 | 0.00 | 30 | 1009.1 |
| 20260504031741 | 56 | 229 | 0.9 | 2.6 | 0.00 | 0.00 | 0.00 | 31 | 1009.1 |
| 20260504031250 | 57 | 229 | 1.7 | 2.6 | 0.00 | 0.00 | 0.00 | 30 | 1009.0 |
| 20260504030753 | 58 | 229 | 1.7 | 2.6 | 0.00 | 0.00 | 0.00 | 28 | 1009.0 |
| 20260504030321 | 58 | 229 | 0.9 | 1.7 | 0.00 | 0.00 | 0.00 | 27 | 1008.9 |
| 20260504025744 | 59 | 229 | 0.9 | 1.7 | 0.00 | 0.00 | 0.00 | 26 | 1008.9 |
| 20260504025251 | 59 | 229 | 0.9 | 1.7 | 0.00 | 0.00 | 0.00 | 27 | 1008.9 |
| 20260504024815 | 59 | 229 | 0.0 | 0.9 | 0.00 | 0.00 | 0.00 | 25 | 1008.8 |
| 20260504024321 | 60 | 229 | 0.0 | 0.9 | 0.00 | 0.00 | 0.00 | 23 | 1008.8 |
| 20260504023805 | 61 | 229 | 0.0 | 1.7 | 0.00 | 0.00 | 0.00 | 24 | 1008.7 |
| 20260504023252 | 62 | 229 | 0.9 | 1.7 | 0.00 | 0.00 | 0.00 | 23 | 1008.7 |
| 20260504022756 | 63 | 229 | 0.9 | 1.7 | 0.00 | 0.00 | 0.00 | 20 | 1008.7 |
| 20260504022304 | 64 | 229 | 0.0 | 0.9 | 0.00 | 0.00 | 0.00 | 19 | 1008.7 |
| 20260504021747 | 65 | 229 | 0.0 | 0.9 | 0.00 | 0.00 | 0.00 | 19 | 1008.7 |
| 20260504021255 | 66 | 229 | 0.0 | 0.9 | 0.00 | 0.00 | 0.00 | 20 | 1008.6 |
| 20260504020759 | 67 | 229 | 0.0 | 1.7 | 0.00 | 0.00 | 0.00 | 17 | 1008.6 |
| 20260504020245 | 68 | 229 | 0.9 | 1.7 | 0.00 | 0.00 | 0.00 | 14 | 1008.7 |
| 20260504015748 | 69 | 229 | 0.0 | 1.7 | 0.00 | 0.00 | 0.00 | 14 | 1008.7 |
| 20260504015255 | 69 | 229 | 0.0 | 1.7 | 0.00 | 0.00 | 0.00 | 15 | 1008.7 |
| 20260504014738 | 70 | 229 | 0.0 | 0.9 | 0.00 | 0.00 | 0.00 | 15 | 1008.7 |
| 20260504014249 | 70 | 229 | 0.0 | 0.9 | 0.00 | 0.00 | 0.00 | 14 | 1008.7 |
| 20260504013753 | 71 | 229 | 0.0 | 1.7 | 0.00 | 0.00 | 0.00 | 12 | 1008.8 |
| 20260504013300 | 71 | 229 | 0.9 | 2.6 | 0.00 | 0.00 | 0.00 | 11 | 1008.8 |
| 20260504012744 | 71 | 205 | 0.9 | 5.2 | 0.00 | 0.00 | 0.00 | 9 | 1008.9 |
| 20260504012251 | 71 | 158 | 1.7 | 5.2 | 0.00 | 0.00 | 0.00 | 8 | 1008.8 |
| 20260504011754 | 72 | 189 | 3.5 | 7.8 | 0.00 | 0.00 | 0.00 | 8 | 1008.9 |
| 20260504011301 | 72 | 210 | 2.6 | 7.8 | 0.00 | 0.00 | 0.00 | 10 | 1008.9 |